Terminal Aerodrome Forecast
Issued by NWS

Current Version | Previous Version | Text Only | Print | Product List | Glossary On
Versions: 1 2 3 4 5 6 7 8 9 10 11 12 13 14 15 16 17 18 19 20 21 22 23
000 FTUS41 KOKX 030830 AAA TAFHPN TAF AMD KHPN 030830Z 0309/0406 VRB03KT P6SM SCT250 FM031300 21004KT P6SM SCT250 FM031500 20008KT P6SM SCT070 FM031900 19012G18KT P6SM SCT070 FM040000 20006KT P6SM SCT070 BKN200 AMD NOT SKED=

USA.gov is the U.S. government's official web portal to all federal, state and local government web resources and services.